McAlester, OK

2:18 AM CDT on August 26, 2016 (GMT -0500)
McAlester Regional

Weather History for KMLC - March, 2014

Change the Weather History Date:

Friday, March 21, 2014

  Actual Average Record
Temperature  
Mean Temperature 66 °F -  
Max Temperature 79 °F 64 °F 88 °F (1997)
Min Temperature 55 °F 41 °F 21 °F (1965)
Cooling Degree Days 1    
Growing Degree Days 16 (Base 50)    
Moisture  
Dew Point 44 °F    
Average Humidity 48    
Maximum Humidity 83    
Minimum Humidity 32    
Precipitation  
Precipitation 0.45 in - - ()
Sea Level Pressure  
Sea Level Pressure 29.87 in    
Wind  
Wind Speed 10 mph (South)    
Max Wind Speed 18 mph    
Max Gust Speed 29 mph    
Visibility 9 miles    
Events Rain , Thunderstorm    
Averages and records for this station are not official NWS values.
T = Trace of Precipitation, MM = Missing Value Source: NWS Daily Summary

Daily Weather History Graph

Daily Weather History Graph

Search for Another Location

Airport or City:

Trip Planner

Search our weather history database for the weather conditions in past years. The results will help you decide how hot, cold, wet, or windy it might be!

Date:

Astronomy

Mar. 21, 2014 Rise Set
Actual Time 7:25 AM CDT 7:35 PM CDT
Civil Twilight 7:00 AM CDT 8:00 PM CDT
Nautical Twilight 6:30 AM CDT 8:30 PM CDT
Astronomical Twilight 6:00 AM CDT 9:00 PM CDT
Moon No Moon Rise 10:28 AM CDT (3/21)
Length of Visible Light 13h 00m
Length of Day
12h 10m
Waning Gibbous, 75% of the Moon is Illuminated
Mar 21
Waning Gibbous
Mar 23
Last Quarter
Mar 30
New
Apr 7
First Quarter
Apr 15
Full

Hourly Weather History & Observations

Time (CDT) Temp. Dew Point Humidity Pressure Visibility Wind Dir Wind Speed Gust Speed Precip Events Conditions
12:53 AM 55.0 °F 28.9 °F 37% 29.98 in 10.0 mi South 6.9 mph - N/A   Clear
1:53 AM 55.0 °F 28.9 °F 37% 29.96 in 10.0 mi South 6.9 mph - N/A   Mostly Cloudy
2:53 AM 57.0 °F 27.0 °F 32% 29.93 in 10.0 mi South 9.2 mph 17.3 mph N/A   Partly Cloudy
3:53 AM 55.9 °F 27.0 °F 33% 29.91 in 10.0 mi South 6.9 mph - N/A   Scattered Clouds
4:53 AM 55.9 °F 28.0 °F 34% 29.90 in 10.0 mi South 10.4 mph - N/A   Scattered Clouds
5:53 AM 57.0 °F 28.0 °F 33% 29.88 in 10.0 mi South 11.5 mph 21.9 mph N/A   Partly Cloudy
6:53 AM 55.9 °F 30.9 °F 39% 29.88 in 10.0 mi South 10.4 mph 18.4 mph N/A   Mostly Cloudy
7:53 AM 55.9 °F 32.0 °F 40% 29.89 in 10.0 mi South 10.4 mph 18.4 mph N/A   Partly Cloudy
8:53 AM 59.0 °F 36.0 °F 42% 29.89 in 10.0 mi South 11.5 mph 20.7 mph N/A   Mostly Cloudy
9:53 AM 63.0 °F 39.0 °F 41% 29.89 in 10.0 mi South 15.0 mph 24.2 mph N/A   Partly Cloudy
10:53 AM 66.0 °F 44.1 °F 45% 29.88 in 10.0 mi SSW 16.1 mph 23.0 mph N/A   Clear
11:53 AM 69.1 °F 46.0 °F 44% 29.85 in 10.0 mi South 12.7 mph 25.3 mph N/A   Clear
12:53 PM 71.1 °F 48.9 °F 45% 29.83 in 10.0 mi South 10.4 mph 24.2 mph N/A   Clear
1:53 PM 77.0 °F 52.0 °F 42% 29.80 in 10.0 mi South 11.5 mph 28.8 mph N/A   Scattered Clouds
2:53 PM 75.9 °F 51.1 °F 42% 29.80 in 10.0 mi SSW 13.8 mph 20.7 mph N/A   Partly Cloudy
3:53 PM 77.0 °F 51.1 °F 40% 29.79 in 10.0 mi SSW 18.4 mph 25.3 mph N/A   Mostly Cloudy
4:53 PM 75.9 °F 52.0 °F 43% 29.79 in 10.0 mi SSW 16.1 mph 21.9 mph N/A   Overcast
5:53 PM 75.9 °F 52.0 °F 43% 29.79 in 10.0 mi SSW 11.5 mph - N/A   Overcast
6:53 PM 75.9 °F 52.0 °F 43% 29.80 in 10.0 mi SSW 6.9 mph - N/A   Scattered Clouds
7:53 PM 72.0 °F 52.0 °F 49% 29.82 in 10.0 mi SSE 4.6 mph - N/A Thunderstorm Scattered Clouds
8:14 PM 71.6 °F 51.8 °F 50% 29.84 in 10.0 mi Variable 3.5 mph - N/A   Mostly Cloudy
8:38 PM 66.2 °F 55.4 °F 68% 29.86 in 7.0 mi Variable 6.9 mph - 0.01 in Rain , Thunderstorm Thunderstorms and Rain
8:53 PM 66.0 °F 55.9 °F 70% 29.88 in 6.0 mi WSW 12.7 mph - 0.05 in Rain , Thunderstorm Thunderstorms and Rain
9:02 PM 62.6 °F 57.2 °F 82% 29.89 in 1.8 mi SW 13.8 mph - 0.24 in Rain , Thunderstorm Heavy Thunderstorms and Rain
9:16 PM 62.6 °F 57.2 °F 82% 29.88 in 3.0 mi South 6.9 mph - 0.40 in Rain , Thunderstorm Thunderstorms and Rain
9:51 PM 62.6 °F 55.4 °F 77% 29.91 in 10.0 mi North 16.1 mph 19.6 mph 0.40 in   Scattered Clouds
9:53 PM 61.0 °F 55.9 °F 83% 29.89 in 10.0 mi NNE 9.2 mph 19.6 mph 0.40 in   Scattered Clouds
10:53 PM 62.1 °F 41.0 °F 46% 29.94 in 10.0 mi NNE 13.8 mph 19.6 mph N/A   Mostly Cloudy
11:53 PM 61.0 °F 37.0 °F 41% 29.95 in 10.0 mi NNE 15.0 mph 21.9 mph N/A   Mostly Cloudy